| time (UTC) | temp C | wind direction | speed KPH | gust KPH | rain 1hr cm | rain 24hr cm | rain mn cm | humidity % | barometer mb |
| 20260906065945 | 11 | 92 | 0.0 | 1.6 | 0.00 | 0.00 | 0.00 | 90 | 1026.1 |
| 20260906065446 | 11 | 115 | 0.0 | 1.6 | 0.00 | 0.00 | 0.00 | 90 | 1026.1 |
| 20260906064946 | 11 | 125 | 1.6 | 3.2 | 0.00 | 0.00 | 0.00 | 90 | 1026.1 |
| 20260906064445 | 11 | 355 | 0.0 | 1.6 | 0.00 | 0.00 | 0.00 | 90 | 1026.2 |
| 20260906063946 | 11 | 351 | 0.0 | 3.2 | 0.00 | 0.00 | 0.00 | 90 | 1026.3 |
| 20260906063445 | 10 | 299 | 0.0 | 1.6 | 0.00 | 0.00 | 0.00 | 90 | 1026.4 |
| 20260906062945 | 10 | 299 | 0.0 | 1.6 | 0.00 | 0.00 | 0.00 | 90 | 1026.4 |
| 20260906062444 | 10 | 299 | 0.0 | 1.6 | 0.00 | 0.00 | 0.00 | 89 | 1026.3 |
| 20260906061945 | 10 | 180 | 0.0 | 0.0 | 0.00 | 0.00 | 0.00 | 89 | 1026.4 |
| 20260906061445 | 10 | 180 | 0.0 | 1.6 | 0.00 | 0.00 | 0.00 | 89 | 1026.3 |
| 20260906060944 | 10 | 198 | 0.0 | 0.0 | 0.00 | 0.00 | 0.00 | 89 | 1026.3 |
| 20260906060445 | 9 | 171 | 0.0 | 1.6 | 0.00 | 0.00 | 0.00 | 89 | 1026.3 |
| 20260906055946 | 9 | 144 | 0.0 | 1.6 | 0.00 | 0.00 | 0.00 | 89 | 1026.3 |
| 20260906055445 | 9 | 136 | 0.0 | 3.2 | 0.00 | 0.00 | 0.00 | 88 | 1026.2 |
| 20260906054945 | 9 | 118 | 1.6 | 3.2 | 0.00 | 0.00 | 0.00 | 88 | 1026.3 |
| 20260906054446 | 9 | 72 | 0.0 | 1.6 | 0.00 | 0.00 | 0.00 | 88 | 1026.2 |
| 20260906053946 | 8 | 65 | 1.6 | 1.6 | 0.00 | 0.00 | 0.00 | 88 | 1026.2 |
| 20260906053446 | 8 | 65 | 0.0 | 0.0 | 0.00 | 0.00 | 0.00 | 88 | 1026.1 |
| 20260906052946 | 8 | 65 | 0.0 | 3.2 | 0.00 | 0.00 | 0.00 | 88 | 1026.0 |
| 20260906052445 | 8 | 97 | 0.0 | 3.2 | 0.00 | 0.00 | 0.00 | 88 | 1026.1 |
| 20260906051946 | 8 | 97 | 0.0 | 1.6 | 0.00 | 0.00 | 0.00 | 87 | 1025.9 |
| 20260906051445 | 9 | 111 | 0.0 | 0.0 | 0.00 | 0.00 | 0.00 | 88 | 1025.9 |
| 20260906050946 | 9 | 155 | 0.0 | 0.0 | 0.00 | 0.00 | 0.00 | 88 | 1025.9 |
| 20260906050446 | 9 | 155 | 0.0 | 1.6 | 0.00 | 0.00 | 0.00 | 88 | 1026.0 |
| 20260906045946 | 9 | 159 | 0.0 | 3.2 | 0.00 | 0.00 | 0.00 | 88 | 1025.9 |
| 20260906045446 | 9 | 150 | 0.0 | 3.2 | 0.00 | 0.00 | 0.00 | 88 | 1025.9 |
| 20260906044945 | 9 | 157 | 0.0 | 3.2 | 0.00 | 0.00 | 0.00 | 87 | 1025.9 |
| 20260906044445 | 9 | 158 | 0.0 | 0.0 | 0.00 | 0.00 | 0.00 | 87 | 1025.9 |
| 20260906043946 | 9 | 158 | 0.0 | 1.6 | 0.00 | 0.00 | 0.00 | 87 | 1025.9 |
| 20260906043446 | 9 | 158 | 0.0 | 1.6 | 0.00 | 0.00 | 0.00 | 87 | 1025.9 |
| 20260906042945 | 9 | 148 | 0.0 | 1.6 | 0.00 | 0.00 | 0.00 | 87 | 1025.9 |
| 20260906042445 | 9 | 124 | 0.0 | 1.6 | 0.00 | 0.00 | 0.00 | 87 | 1025.8 |
| 20260906041944 | 9 | 124 | 0.0 | 1.6 | 0.00 | 0.00 | 0.00 | 86 | 1025.8 |
| 20260906041444 | 9 | 132 | 0.0 | 1.6 | 0.00 | 0.00 | 0.00 | 87 | 1025.8 |
| 20260906040946 | 9 | 163 | 0.0 | 0.0 | 0.00 | 0.00 | 0.00 | 86 | 1025.8 |
| 20260906040444 | 9 | 163 | 0.0 | 0.0 | 0.00 | 0.00 | 0.00 | 86 | 1025.7 |
| 20260906035944 | 9 | 163 | 0.0 | 0.0 | 0.00 | 0.00 | 0.00 | 86 | 1025.6 |
| 20260906035444 | 9 | 163 | 0.0 | 0.0 | 0.00 | 0.00 | 0.00 | 86 | 1025.8 |
| 20260906034945 | 9 | 163 | 1.6 | 1.6 | 0.00 | 0.00 | 0.00 | 86 | 1025.8 |
| 20260906034445 | 9 | 177 | 0.0 | 0.0 | 0.00 | 0.00 | 0.00 | 86 | 1025.9 |
| 20260906033944 | 10 | 177 | 0.0 | 0.0 | 0.00 | 0.00 | 0.00 | 86 | 1025.9 |
| 20260906033445 | 10 | 177 | 0.0 | 0.0 | 0.00 | 0.00 | 0.00 | 86 | 1025.9 |
| 20260906032945 | 10 | 177 | 0.0 | 0.0 | 0.00 | 0.00 | 0.00 | 86 | 1025.9 |
| 20260906032445 | 10 | 177 | 0.0 | 1.6 | 0.00 | 0.00 | 0.00 | 86 | 1026.0 |
| 20260906031945 | 10 | 177 | 0.0 | 3.2 | 0.00 | 0.00 | 0.00 | 86 | 1025.9 |
| 20260906031445 | 10 | 186 | 1.6 | 3.2 | 0.00 | 0.00 | 0.00 | 86 | 1025.9 |
| 20260906030945 | 10 | 140 | 0.0 | 3.2 | 0.00 | 0.00 | 0.00 | 86 | 1025.9 |
| 20260906030220 | 10 | 158 | 0.0 | 3.2 | 0.00 | 0.00 | 0.00 | 85 | 1025.9 |
| 20260906025720 | 10 | 156 | 0.0 | 1.6 | 0.00 | 0.18 | 0.00 | 85 | 1025.9 |
| 20260906025220 | 10 | 156 | 0.0 | 1.6 | 0.00 | 0.18 | 0.00 | 85 | 1025.8 |
| 20260906024719 | 10 | 156 | 0.0 | 1.6 | 0.00 | 0.18 | 0.00 | 85 | 1025.7 |
| 20260906024219 | 10 | 156 | 0.0 | 1.6 | 0.00 | 0.18 | 0.00 | 85 | 1025.7 |
| 20260906023719 | 10 | 155 | 0.0 | 1.6 | 0.00 | 0.18 | 0.00 | 85 | 1025.6 |
| 20260906023220 | 10 | 155 | 0.0 | 0.0 | 0.00 | 0.18 | 0.00 | 85 | 1025.6 |
| 20260906022720 | 10 | 155 | 0.0 | 0.0 | 0.00 | 0.18 | 0.00 | 85 | 1025.7 |
| 20260906022219 | 10 | 155 | 0.0 | 0.0 | 0.00 | 0.18 | 0.00 | 85 | 1025.7 |
| 20260906021719 | 10 | 155 | 0.0 | 1.6 | 0.00 | 0.18 | 0.00 | 84 | 1025.7 |
| 20260906021218 | 10 | 155 | 0.0 | 0.0 | 0.00 | 0.18 | 0.00 | 85 | 1025.7 |
| 20260906020719 | 10 | 155 | 0.0 | 1.6 | 0.00 | 0.18 | 0.00 | 84 | 1025.7 |
| 20260906020218 | 10 | 147 | 0.0 | 1.6 | 0.00 | 0.18 | 0.00 | 84 | 1025.8 |
| 20260906015718 | 10 | 147 | 0.0 | 0.0 | 0.00 | 0.51 | 0.00 | 84 | 1025.7 |
| 20260906015220 | 10 | 147 | 1.6 | 3.2 | 0.00 | 0.51 | 0.00 | 84 | 1025.7 |
| 20260906014719 | 11 | 143 | 1.6 | 3.2 | 0.00 | 0.51 | 0.00 | 84 | 1025.7 |
| 20260906014219 | 11 | 110 | 0.0 | 1.6 | 0.00 | 0.51 | 0.00 | 84 | 1025.7 |
| 20260906013719 | 11 | 110 | 0.0 | 1.6 | 0.00 | 0.51 | 0.00 | 84 | 1025.7 |
| 20260906013220 | 11 | 109 | 0.0 | 1.6 | 0.00 | 0.51 | 0.00 | 84 | 1025.7 |
| 20260906012719 | 11 | 109 | 0.0 | 1.6 | 0.00 | 0.51 | 0.00 | 84 | 1025.6 |
| 20260906012219 | 11 | 109 | 0.0 | 1.6 | 0.00 | 0.51 | 0.00 | 84 | 1025.7 |
| 20260906011720 | 11 | 134 | 1.6 | 3.2 | 0.00 | 0.51 | 0.00 | 84 | 1025.7 |
| 20260906011219 | 11 | 132 | 1.6 | 4.8 | 0.00 | 0.51 | 0.00 | 84 | 1025.8 |
| 20260906010719 | 11 | 157 | 3.2 | 4.8 | 0.00 | 0.51 | 0.00 | 84 | 1025.8 |
| 20260906010218 | 11 | 68 | 0.0 | 0.0 | 0.00 | 0.51 | 0.00 | 83 | 1025.7 |
| 20260906005718 | 11 | 67 | 0.0 | 0.0 | 0.00 | 0.51 | 0.00 | 83 | 1025.7 |
| 20260906005219 | 11 | 67 | 0.0 | 0.0 | 0.00 | 0.51 | 0.00 | 83 | 1025.7 |
| 20260906004718 | 11 | 67 | 0.0 | 0.0 | 0.00 | 0.51 | 0.00 | 83 | 1025.7 |
| 20260906004218 | 11 | 153 | 0.0 | 0.0 | 0.00 | 0.51 | 0.00 | 82 | 1025.7 |
| 20260906003719 | 11 | 153 | 0.0 | 0.0 | 0.00 | 0.51 | 0.00 | 82 | 1025.7 |
| 20260906003219 | 11 | 153 | 0.0 | 0.0 | 0.00 | 0.51 | 0.00 | 82 | 1025.8 |
| 20260906002718 | 11 | 153 | 0.0 | 0.0 | 0.00 | 0.51 | 0.00 | 82 | 1025.6 |
| 20260906002218 | 11 | 153 | 0.0 | 0.0 | 0.00 | 0.51 | 0.00 | 82 | 1025.7 |
| 20260906001718 | 11 | 153 | 0.0 | 0.0 | 0.00 | 0.51 | 0.00 | 82 | 1025.7 |
| 20260906001220 | 11 | 153 | 0.0 | 0.0 | 0.00 | 0.51 | 0.00 | 82 | 1025.7 |
| 20260906000718 | 11 | 153 | 0.0 | 0.0 | 0.00 | 0.51 | 0.00 | 82 | 1025.6 |
| 20260906000220 | 11 | 153 | 0.0 | 0.0 | 0.00 | 0.51 | 0.00 | 81 | 1025.6 |
| 20260905235720 | 11 | 153 | 0.0 | 0.0 | 0.00 | 0.51 | 0.00 | 81 | 1025.5 |
| 20260905235219 | 11 | 153 | 0.0 | 0.0 | 0.00 | 0.51 | 0.00 | 81 | 1025.6 |
| 20260905234720 | 11 | 153 | 0.0 | 0.0 | 0.00 | 0.51 | 0.00 | 81 | 1025.6 |
| 20260905234220 | 12 | 153 | 0.0 | 0.0 | 0.00 | 0.51 | 0.00 | 81 | 1025.7 |
| 20260905233719 | 12 | 153 | 0.0 | 0.0 | 0.00 | 0.51 | 0.00 | 81 | 1025.7 |
| 20260905233220 | 12 | 153 | 0.0 | 0.0 | 0.00 | 0.51 | 0.00 | 81 | 1025.7 |
| 20260905232719 | 12 | 153 | 0.0 | 0.0 | 0.00 | 0.51 | 0.00 | 80 | 1025.7 |
| 20260905232220 | 12 | 153 | 0.0 | 0.0 | 0.00 | 0.51 | 0.00 | 81 | 1025.5 |
| 20260905231718 | 12 | 150 | 0.0 | 0.0 | 0.00 | 0.51 | 0.00 | 80 | 1025.5 |
| 20260905231219 | 12 | 150 | 1.6 | 1.6 | 0.00 | 0.51 | 0.00 | 80 | 1025.5 |
| 20260905230719 | 12 | 150 | 0.0 | 0.0 | 0.00 | 0.51 | 0.00 | 80 | 1025.5 |
| 20260905230218 | 12 | 150 | 0.0 | 0.0 | 0.00 | 0.51 | 0.00 | 80 | 1025.5 |
| 20260905225719 | 12 | 150 | 0.0 | 3.2 | 0.00 | 0.51 | 0.00 | 80 | 1025.5 |
| 20260905225219 | 12 | 151 | 0.0 | 1.6 | 0.00 | 0.51 | 0.00 | 79 | 1025.6 |
| 20260905224719 | 12 | 145 | 0.0 | 0.0 | 0.00 | 0.51 | 0.00 | 79 | 1025.6 |
| 20260905224219 | 12 | 145 | 0.0 | 0.0 | 0.00 | 0.51 | 0.00 | 79 | 1025.6 |
| 20260905223718 | 13 | 145 | 0.0 | 1.6 | 0.00 | 0.51 | 0.00 | 79 | 1025.7 |
| 20260905223219 | 13 | 145 | 0.0 | 3.2 | 0.00 | 0.51 | 0.00 | 79 | 1025.6 |
| 20260905222720 | 13 | 145 | 1.6 | 3.2 | 0.00 | 0.51 | 0.00 | 79 | 1025.5 |
| 20260905222219 | 13 | 150 | 0.0 | 1.6 | 0.00 | 0.51 | 0.00 | 78 | 1025.6 |
| 20260905221719 | 13 | 150 | 1.6 | 1.6 | 0.00 | 0.51 | 0.00 | 78 | 1025.5 |
| 20260905221219 | 13 | 150 | 0.0 | 1.6 | 0.00 | 0.51 | 0.00 | 78 | 1025.5 |
| 20260905220719 | 13 | 150 | 0.0 | 1.6 | 0.00 | 0.51 | 0.00 | 78 | 1025.4 |
| 20260905220220 | 13 | 150 | 0.0 | 0.0 | 0.00 | 0.51 | 0.00 | 78 | 1025.3 |
| 20260905215720 | 13 | 150 | 0.0 | 1.6 | 0.00 | 0.51 | 0.51 | 78 | 1025.3 |
| 20260905215220 | 13 | 150 | 0.0 | 0.0 | 0.00 | 0.51 | 0.51 | 77 | 1025.3 |
| 20260905214719 | 13 | 150 | 0.0 | 3.2 | 0.00 | 0.51 | 0.51 | 77 | 1025.3 |
| 20260905214218 | 13 | 150 | 0.0 | 3.2 | 0.00 | 0.51 | 0.51 | 77 | 1025.2 |
| 20260905213720 | 13 | 145 | 3.2 | 4.8 | 0.00 | 0.51 | 0.51 | 77 | 1025.2 |
| 20260905213218 | 14 | 139 | 1.6 | 3.2 | 0.00 | 0.51 | 0.51 | 77 | 1025.2 |
| 20260905212718 | 14 | 169 | 1.6 | 3.2 | 0.00 | 0.51 | 0.51 | 76 | 1025.2 |
| 20260905212219 | 14 | 92 | 0.0 | 1.6 | 0.00 | 0.51 | 0.51 | 76 | 1025.1 |
| 20260905211718 | 14 | 72 | 0.0 | 1.6 | 0.00 | 0.51 | 0.51 | 76 | 1025.2 |
| 20260905211219 | 14 | 115 | 0.0 | 1.6 | 0.00 | 0.51 | 0.51 | 75 | 1025.2 |
| 20260905210718 | 15 | 139 | 0.0 | 1.6 | 0.00 | 0.51 | 0.51 | 75 | 1025.2 |
| 20260905210218 | 15 | 139 | 0.0 | 0.0 | 0.00 | 0.51 | 0.51 | 75 | 1025.1 |
| 20260905205719 | 15 | 139 | 0.0 | 3.2 | 0.00 | 0.51 | 0.51 | 75 | 1025.1 |
| 20260905205219 | 15 | 146 | 0.0 | 1.6 | 0.00 | 0.51 | 0.51 | 75 | 1025.1 |
| 20260905204719 | 15 | 146 | 0.0 | 1.6 | 0.00 | 0.51 | 0.51 | 74 | 1025.0 |
| 20260905204219 | 15 | 146 | 0.0 | 0.0 | 0.00 | 0.51 | 0.51 | 74 | 1025.0 |
| 20260905203719 | 15 | 146 | 0.0 | 1.6 | 0.00 | 0.51 | 0.51 | 74 | 1025.0 |
| 20260905203219 | 16 | 146 | 1.6 | 1.6 | 0.00 | 0.51 | 0.51 | 74 | 1024.9 |
| 20260905202719 | 16 | 151 | 1.6 | 3.2 | 0.00 | 0.51 | 0.51 | 74 | 1024.9 |
| 20260905202220 | 16 | 131 | 0.0 | 1.6 | 0.00 | 0.51 | 0.51 | 72 | 1024.8 |
| 20260905201719 | 16 | 126 | 0.0 | 3.2 | 0.00 | 0.51 | 0.51 | 72 | 1024.9 |
| 20260905201220 | 16 | 86 | 0.0 | 1.6 | 0.00 | 0.51 | 0.51 | 72 | 1024.7 |
| 20260905200719 | 17 | 77 | 1.6 | 3.2 | 0.00 | 0.51 | 0.51 | 71 | 1024.6 |
| 20260905200219 | 17 | 19 | 0.0 | 0.0 | 0.00 | 0.51 | 0.51 | 71 | 1024.5 |
| 20260905195719 | 17 | 19 | 0.0 | 1.6 | 0.00 | 0.51 | 0.51 | 70 | 1024.6 |
| 20260905195220 | 17 | 21 | 0.0 | 1.6 | 0.00 | 0.51 | 0.51 | 70 | 1024.4 |
| 20260905194719 | 17 | 340 | 0.0 | 1.6 | 0.00 | 0.51 | 0.51 | 69 | 1024.3 |
| 20260905194219 | 18 | 55 | 0.0 | 3.2 | 0.00 | 0.51 | 0.51 | 68 | 1024.2 |
| 20260905193718 | 18 | 90 | 0.0 | 3.2 | 0.00 | 0.51 | 0.51 | 67 | 1024.1 |
| 20260905193219 | 18 | 111 | 0.0 | 1.6 | 0.00 | 0.51 | 0.51 | 67 | 1024.1 |
| 20260905192718 | 18 | 115 | 0.0 | 1.6 | 0.00 | 0.51 | 0.51 | 65 | 1024.2 |
| 20260905192219 | 19 | 116 | 1.6 | 3.2 | 0.00 | 0.51 | 0.51 | 65 | 1024.1 |
| 20260905191718 | 19 | 119 | 0.0 | 3.2 | 0.00 | 0.51 | 0.51 | 64 | 1024.1 |
| 20260905191219 | 20 | 107 | 0.0 | 1.6 | 0.00 | 0.51 | 0.51 | 63 | 1024.0 |
| 20260905190718 | 20 | 98 | 1.6 | 3.2 | 0.00 | 0.51 | 0.51 | 63 | 1024.0 |
| 20260905190220 | 20 | 30 | 0.0 | 3.2 | 0.00 | 0.51 | 0.51 | 62 | 1024.0 |
| 20260905185720 | 21 | 61 | 1.6 | 3.2 | 0.00 | 0.51 | 0.51 | 61 | 1023.9 |
| 20260905185220 | 21 | 45 | 1.6 | 3.2 | 0.00 | 0.51 | 0.51 | 59 | 1023.8 |
| 20260905184720 | 21 | 5 | 0.0 | 3.2 | 0.00 | 0.51 | 0.51 | 58 | 1023.8 |
| 20260905184219 | 21 | 44 | 1.6 | 3.2 | 0.00 | 0.51 | 0.51 | 57 | 1023.7 |
| 20260905183720 | 22 | 16 | 0.0 | 1.6 | 0.00 | 0.51 | 0.51 | 57 | 1023.6 |
| 20260905183219 | 22 | 26 | 0.0 | 3.2 | 0.00 | 0.51 | 0.51 | 55 | 1023.5 |
| 20260905182719 | 22 | 22 | 3.2 | 3.2 | 0.00 | 0.51 | 0.51 | 54 | 1023.4 |
| 20260905182218 | 22 | 360 | 0.0 | 3.2 | 0.00 | 0.51 | 0.51 | 53 | 1023.4 |
| 20260905181719 | 22 | 22 | 1.6 | 9.7 | 0.00 | 0.51 | 0.51 | 51 | 1023.3 |
| 20260905181218 | 22 | 37 | 1.6 | 6.4 | 0.00 | 0.51 | 0.51 | 52 | 1023.2 |
| 20260905180719 | 23 | 347 | 1.6 | 6.4 | 0.00 | 0.51 | 0.51 | 52 | 1023.2 |
| 20260905180219 | 23 | 360 | 1.6 | 4.8 | 0.00 | 0.51 | 0.51 | 53 | 1023.1 |
| 20260905175719 | 23 | 342 | 1.6 | 6.4 | 0.00 | 0.51 | 0.51 | 52 | 1023.1 |
| 20260905175219 | 24 | 5 | 1.6 | 4.8 | 0.00 | 0.51 | 0.51 | 53 | 1023.1 |
| 20260905174720 | 24 | 350 | 1.6 | 4.8 | 0.00 | 0.51 | 0.51 | 53 | 1023.1 |
| 20260905174220 | 25 | 33 | 0.0 | 4.8 | 0.00 | 0.51 | 0.51 | 55 | 1023.0 |
| 20260905173719 | 25 | 360 | 1.6 | 6.4 | 0.00 | 0.51 | 0.51 | 54 | 1023.0 |
| 20260905173220 | 25 | 313 | 6.4 | 8.0 | 0.00 | 0.51 | 0.51 | 54 | 1022.9 |
| 20260905172719 | 25 | 330 | 4.8 | 9.7 | 0.00 | 0.51 | 0.51 | 53 | 1022.8 |
| 20260905172220 | 25 | 242 | 3.2 | 8.0 | 0.00 | 0.51 | 0.51 | 53 | 1022.7 |
| 20260905171720 | 25 | 264 | 3.2 | 11.3 | 0.00 | 0.51 | 0.51 | 52 | 1022.7 |
| 20260905171219 | 25 | 241 | 3.2 | 11.3 | 0.00 | 0.51 | 0.51 | 52 | 1022.6 |
| 20260905170720 | 25 | 276 | 4.8 | 8.0 | 0.00 | 0.51 | 0.51 | 52 | 1022.5 |
| 20260905170219 | 26 | 306 | 4.8 | 9.7 | 0.00 | 0.51 | 0.51 | 50 | 1022.5 |
| 20260905165719 | 26 | 28 | 4.8 | 8.0 | 0.00 | 0.51 | 0.51 | 49 | 1022.5 |
| 20260905165219 | 26 | 300 | 0.0 | 3.2 | 0.00 | 0.51 | 0.51 | 45 | 1022.6 |
| 20260905164718 | 26 | 273 | 0.0 | 6.4 | 0.00 | 0.51 | 0.51 | 44 | 1022.5 |
| 20260905164218 | 26 | 298 | 6.4 | 9.7 | 0.00 | 0.51 | 0.51 | 41 | 1022.5 |
| 20260905163719 | 26 | 334 | 1.6 | 14.5 | 0.00 | 0.51 | 0.51 | 46 | 1022.5 |
| 20260905163219 | 27 | 20 | 3.2 | 9.7 | 0.00 | 0.51 | 0.51 | 47 | 1022.5 |
| 20260905162720 | 27 | 261 | 4.8 | 8.0 | 0.00 | 0.51 | 0.51 | 45 | 1022.4 |
| 20260905162219 | 27 | 337 | 4.8 | 9.7 | 0.00 | 0.51 | 0.51 | 47 | 1022.3 |
| 20260905161719 | 27 | 275 | 8.0 | 12.9 | 0.00 | 0.51 | 0.51 | 42 | 1022.2 |
| 20260905161219 | 28 | 279 | 3.2 | 8.0 | 0.00 | 0.51 | 0.51 | 43 | 1022.2 |
| 20260905160719 | 27 | 24 | 0.0 | 4.8 | 0.00 | 0.51 | 0.51 | 42 | 1022.2 |
| 20260905160220 | 27 | 71 | 1.6 | 4.8 | 0.00 | 0.51 | 0.51 | 45 | 1022.2 |
| 20260905155719 | 27 | 350 | 1.6 | 4.8 | 0.00 | 0.51 | 0.51 | 43 | 1022.2 |
| 20260905155220 | 27 | 261 | 0.0 | 8.0 | 0.00 | 0.51 | 0.51 | 44 | 1022.1 |
| 20260905154720 | 27 | 51 | 1.6 | 6.4 | 0.00 | 0.51 | 0.51 | 44 | 1022.1 |
| 20260905154220 | 27 | 360 | 1.6 | 4.8 | 0.00 | 0.51 | 0.51 | 45 | 1022.2 |
| 20260905153720 | 27 | 5 | 1.6 | 4.8 | 0.00 | 0.51 | 0.51 | 44 | 1022.1 |
| 20260905153220 | 28 | 215 | 3.2 | 9.7 | 0.00 | 0.51 | 0.51 | 42 | 1022.1 |
| 20260905152719 | 28 | 90 | 3.2 | 6.4 | 0.00 | 0.51 | 0.51 | 43 | 1022.1 |
| 20260905152219 | 28 | 350 | 4.8 | 8.0 | 0.00 | 0.51 | 0.51 | 45 | 1022.2 |
| 20260905151718 | 27 | 355 | 1.6 | 12.9 | 0.00 | 0.51 | 0.51 | 46 | 1022.2 |
| 20260905151218 | 27 | 360 | 4.8 | 9.7 | 0.00 | 0.51 | 0.51 | 46 | 1022.1 |
| 20260905150719 | 27 | 347 | 4.8 | 9.7 | 0.00 | 0.51 | 0.51 | 47 | 1022.1 |
| 20260905150219 | 27 | 302 | 3.2 | 14.5 | 0.00 | 0.51 | 0.51 | 45 | 1022.1 |
| 20260905145720 | 27 | 295 | 4.8 | 12.9 | 0.00 | 0.51 | 0.51 | 45 | 1022.2 |
| 20260905145218 | 27 | 333 | 4.8 | 12.9 | 0.00 | 0.51 | 0.51 | 43 | 1022.1 |
| 20260905144720 | 27 | 234 | 4.8 | 9.7 | 0.00 | 0.51 | 0.51 | 45 | 1022.1 |
| 20260905144220 | 27 | 321 | 3.2 | 9.7 | 0.00 | 0.51 | 0.51 | 45 | 1022.1 |
| 20260905143720 | 28 | 350 | 4.8 | 8.0 | 0.00 | 0.51 | 0.51 | 42 | 1022.1 |
| 20260905143220 | 28 | 318 | 6.4 | 17.7 | 0.00 | 0.51 | 0.51 | 43 | 1022.2 |
| 20260905142720 | 28 | 17 | 3.2 | 9.7 | 0.00 | 0.51 | 0.51 | 40 | 1022.1 |
| 20260905142219 | 29 | 111 | 4.8 | 9.7 | 0.00 | 0.51 | 0.51 | 41 | 1022.1 |
| 20260905141720 | 29 | 43 | 3.2 | 12.9 | 0.00 | 0.51 | 0.51 | 44 | 1022.1 |
| 20260905141220 | 28 | 360 | 1.6 | 8.0 | 0.00 | 0.51 | 0.51 | 43 | 1022.1 |
| 20260905140719 | 28 | 43 | 3.2 | 11.3 | 0.00 | 0.51 | 0.51 | 44 | 1022.2 |
| 20260905140219 | 28 | 279 | 6.4 | 12.9 | 0.00 | 0.51 | 0.51 | 41 | 1022.3 |
| 20260905135718 | 28 | 345 | 3.2 | 6.4 | 0.00 | 0.51 | 0.51 | 45 | 1022.2 |
| 20260905135219 | 28 | 146 | 3.2 | 9.7 | 0.00 | 0.51 | 0.51 | 47 | 1022.2 |
| 20260905134718 | 28 | 126 | 3.2 | 11.3 | 0.00 | 0.51 | 0.51 | 44 | 1022.2 |
| 20260905134218 | 28 | 279 | 3.2 | 16.1 | 0.00 | 0.51 | 0.51 | 44 | 1022.2 |
| 20260905133719 | 28 | 278 | 6.4 | 8.0 | 0.00 | 0.51 | 0.51 | 45 | 1022.2 |
| 20260905133218 | 28 | 58 | 6.4 | 14.5 | 0.00 | 0.51 | 0.51 | 47 | 1022.2 |
| 20260905132720 | 28 | 28 | 4.8 | 11.3 | 0.00 | 0.51 | 0.51 | 46 | 1022.2 |
| 20260905132219 | 28 | 5 | 4.8 | 11.3 | 0.00 | 0.51 | 0.51 | 44 | 1022.3 |
| 20260905131720 | 27 | 267 | 3.2 | 12.9 | 0.00 | 0.51 | 0.51 | 50 | 1022.3 |
| 20260905131219 | 27 | 257 | 4.8 | 8.0 | 0.00 | 0.51 | 0.51 | 46 | 1022.3 |
| 20260905130720 | 27 | 266 | 1.6 | 6.4 | 0.00 | 0.51 | 0.51 | 49 | 1022.2 |
| 20260905130220 | 27 | 347 | 3.2 | 6.4 | 0.00 | 0.51 | 0.51 | 51 | 1022.4 |
| 20260905125720 | 27 | 290 | 4.8 | 9.7 | 0.00 | 0.51 | 0.51 | 47 | 1022.4 |
| 20260905125220 | 27 | 245 | 6.4 | 9.7 | 0.00 | 0.51 | 0.51 | 47 | 1022.5 |
| 20260905124719 | 27 | 273 | 4.8 | 6.4 | 0.00 | 0.51 | 0.51 | 51 | 1022.5 |
| 20260905124218 | 27 | 324 | 3.2 | 6.4 | 0.00 | 0.51 | 0.51 | 50 | 1022.5 |
| 20260905123720 | 27 | 291 | 1.6 | 4.8 | 0.00 | 0.51 | 0.51 | 52 | 1022.5 |
| 20260905123218 | 27 | 211 | 3.2 | 4.8 | 0.00 | 0.51 | 0.51 | 50 | 1022.5 |
| 20260905122719 | 27 | 98 | 6.4 | 11.3 | 0.00 | 0.51 | 0.51 | 51 | 1022.4 |
| 20260905122219 | 27 | 37 | 3.2 | 9.7 | 0.00 | 0.51 | 0.51 | 52 | 1022.5 |
| 20260905121719 | 27 | 360 | 3.2 | 11.3 | 0.00 | 0.51 | 0.51 | 53 | 1022.4 |
| 20260905121219 | 27 | 345 | 3.2 | 8.0 | 0.00 | 0.51 | 0.51 | 56 | 1022.4 |
| 20260905120719 | 27 | 337 | 3.2 | 6.4 | 0.00 | 0.51 | 0.51 | 52 | 1022.5 |
| 20260905120218 | 27 | 355 | 8.0 | 16.1 | 0.00 | 0.51 | 0.51 | 51 | 1022.5 |
| 20260905115718 | 26 | 273 | 3.2 | 8.0 | 0.00 | 0.51 | 0.51 | 55 | 1022.5 |
| 20260905115219 | 26 | 73 | 3.2 | 9.7 | 0.00 | 0.51 | 0.51 | 55 | 1022.5 |
| 20260905114718 | 26 | 331 | 3.2 | 8.0 | 0.00 | 0.51 | 0.51 | 55 | 1022.5 |
| 20260905114219 | 26 | 281 | 3.2 | 6.4 | 0.00 | 0.51 | 0.51 | 56 | 1022.5 |
| 20260905113719 | 26 | 18 | 3.2 | 8.0 | 0.00 | 0.51 | 0.51 | 58 | 1022.6 |
| 20260905113219 | 26 | 355 | 1.6 | 8.0 | 0.00 | 0.51 | 0.51 | 57 | 1022.5 |
| 20260905112719 | 26 | 290 | 1.6 | 3.2 | 0.00 | 0.51 | 0.51 | 61 | 1022.5 |
| 20260905112220 | 25 | 67 | 1.6 | 4.8 | 0.00 | 0.51 | 0.51 | 60 | 1022.5 |
| 20260905111719 | 25 | 183 | 3.2 | 4.8 | 0.00 | 0.51 | 0.51 | 62 | 1022.6 |
| 20260905111220 | 25 | 207 | 1.6 | 9.7 | 0.00 | 0.51 | 0.51 | 62 | 1022.6 |
| 20260905110719 | 25 | 74 | 3.2 | 8.0 | 0.00 | 0.51 | 0.51 | 64 | 1022.7 |
| 20260905110219 | 25 | 45 | 1.6 | 4.8 | 0.00 | 0.51 | 0.51 | 66 | 1022.7 |
| 20260905105718 | 25 | 355 | 3.2 | 4.8 | 0.00 | 0.51 | 0.51 | 63 | 1022.7 |
| 20260905105220 | 25 | 344 | 1.6 | 9.7 | 0.00 | 0.51 | 0.51 | 64 | 1022.7 |
| 20260905104718 | 25 | 320 | 3.2 | 8.0 | 0.00 | 0.51 | 0.51 | 65 | 1022.7 |
| 20260905104219 | 24 | 201 | 1.6 | 4.8 | 0.00 | 0.51 | 0.51 | 65 | 1022.7 |
| 20260905103719 | 24 | 273 | 1.6 | 6.4 | 0.00 | 0.51 | 0.51 | 68 | 1022.8 |
| 20260905103219 | 23 | 45 | 1.6 | 4.8 | 0.00 | 0.51 | 0.51 | 68 | 1022.8 |
| 20260905102719 | 23 | 307 | 3.2 | 9.7 | 0.00 | 0.51 | 0.51 | 71 | 1022.8 |
| 20260905102219 | 23 | 355 | 0.0 | 4.8 | 0.00 | 0.51 | 0.51 | 70 | 1022.8 |
| 20260905101718 | 23 | 323 | 3.2 | 6.4 | 0.00 | 0.51 | 0.51 | 71 | 1022.7 |
| 20260905101219 | 23 | 27 | 4.8 | 6.4 | 0.00 | 0.51 | 0.51 | 72 | 1022.8 |
| 20260905100719 | 23 | 156 | 3.2 | 8.0 | 0.00 | 0.51 | 0.51 | 69 | 1022.7 |
| 20260905100220 | 23 | 162 | 1.6 | 4.8 | 0.00 | 0.51 | 0.51 | 68 | 1022.8 |
| 20260905095720 | 23 | 282 | 3.2 | 8.0 | 0.00 | 0.51 | 0.51 | 73 | 1022.8 |
| 20260905095219 | 22 | 296 | 1.6 | 4.8 | 0.00 | 0.51 | 0.51 | 76 | 1022.7 |
| 20260905094720 | 22 | 279 | 0.0 | 6.4 | 0.00 | 0.51 | 0.51 | 77 | 1022.7 |
| 20260905094219 | 22 | 317 | 3.2 | 9.7 | 0.00 | 0.51 | 0.51 | 78 | 1022.7 |
| 20260905093720 | 22 | 289 | 1.6 | 3.2 | 0.00 | 0.51 | 0.51 | 78 | 1022.7 |
| 20260905093218 | 22 | 333 | 3.2 | 4.8 | 0.00 | 0.51 | 0.51 | 80 | 1022.7 |
| 20260905092719 | 22 | 269 | 1.6 | 6.4 | 0.00 | 0.51 | 0.51 | 81 | 1022.7 |
| 20260905092218 | 21 | 315 | 1.6 | 6.4 | 0.00 | 0.51 | 0.51 | 84 | 1022.8 |
| 20260905091718 | 21 | 341 | 1.6 | 4.8 | 0.00 | 0.51 | 0.51 | 85 | 1022.6 |
| 20260905091218 | 21 | 249 | 1.6 | 8.0 | 0.00 | 0.51 | 0.51 | 83 | 1022.6 |
| 20260905090718 | 21 | 334 | 1.6 | 6.4 | 0.00 | 0.51 | 0.51 | 85 | 1022.5 |
| 20260905090219 | 21 | 294 | 1.6 | 8.0 | 0.00 | 0.51 | 0.51 | 85 | 1022.4 |
| 20260905085720 | 21 | 355 | 1.6 | 4.8 | 0.00 | 0.51 | 0.51 | 84 | 1022.3 |
| 20260905085218 | 21 | 290 | 1.6 | 6.4 | 0.00 | 0.51 | 0.51 | 86 | 1022.3 |
| 20260905084719 | 21 | 69 | 1.6 | 8.0 | 0.00 | 0.51 | 0.51 | 87 | 1022.2 |
| 20260905084220 | 20 | 5 | 3.2 | 4.8 | 0.00 | 0.51 | 0.51 | 87 | 1022.2 |
| 20260905083719 | 20 | 5 | 1.6 | 4.8 | 0.00 | 0.51 | 0.51 | 88 | 1022.0 |
| 20260905083219 | 20 | 279 | 3.2 | 4.8 | 0.00 | 0.51 | 0.51 | 88 | 1022.0 |
| 20260905082720 | 20 | 53 | 0.0 | 3.2 | 0.00 | 0.51 | 0.51 | 89 | 1022.0 |
| 20260905082219 | 20 | 21 | 1.6 | 6.4 | 0.00 | 0.51 | 0.51 | 89 | 1021.9 |
| 20260905081719 | 20 | 48 | 1.6 | 4.8 | 0.00 | 0.51 | 0.51 | 89 | 1021.8 |
| 20260905081219 | 20 | 313 | 0.0 | 4.8 | 0.00 | 0.51 | 0.51 | 89 | 1021.8 |
| 20260905080719 | 20 | 313 | 4.8 | 6.4 | 0.00 | 0.51 | 0.51 | 90 | 1021.8 |
| 20260905080220 | 20 | 343 | 1.6 | 4.8 | 0.00 | 0.51 | 0.51 | 90 | 1021.8 |
| 20260905075719 | 20 | 5 | 1.6 | 3.2 | 0.00 | 0.51 | 0.51 | 91 | 1021.7 |
| 20260905075219 | 19 | 59 | 1.6 | 6.4 | 0.00 | 0.51 | 0.51 | 90 | 1021.7 |
| 20260905074719 | 19 | 21 | 0.0 | 8.0 | 0.00 | 0.51 | 0.51 | 90 | 1021.6 |
| 20260905074218 | 19 | 293 | 1.6 | 3.2 | 0.00 | 0.51 | 0.51 | 90 | 1021.5 |
| 20260905073719 | 19 | 306 | 1.6 | 3.2 | 0.00 | 0.51 | 0.51 | 91 | 1021.4 |
| 20260905073219 | 19 | 292 | 0.0 | 3.2 | 0.00 | 0.51 | 0.51 | 90 | 1021.5 |
| 20260905072719 | 18 | 284 | 3.2 | 4.8 | 0.00 | 0.51 | 0.51 | 90 | 1021.5 |
| 20260905072219 | 18 | 265 | 1.6 | 3.2 | 0.00 | 0.51 | 0.51 | 90 | 1021.4 |
| 20260905071719 | 18 | 224 | 1.6 | 1.6 | 0.00 | 0.51 | 0.51 | 90 | 1021.3 |
| 20260905071219 | 18 | 180 | 0.0 | 1.6 | 0.00 | 0.51 | 0.51 | 90 | 1021.3 |
| 20260905070719 | 18 | 131 | 0.0 | 3.2 | 0.00 | 0.51 | 0.51 | 90 | 1021.3 |
| 20260905070220 | 18 | 84 | 0.0 | 1.6 | 0.00 | 0.51 | 0.51 | 90 | 1021.2 |